Data,Hora,Valor
2020-12-01,00:00,1.11
2020-12-01,00:30,1.11
2020-12-01,01:00,1.11
2020-12-01,01:30,1.11
2020-12-01,02:00,1.11
2020-12-01,02:30,1.1
2020-12-01,03:00,1.1
2020-12-01,03:30,1.09
2020-12-01,04:00,1.09
2020-12-01,04:30,1.08
2020-12-01,05:00,1.08
2020-12-01,05:30,1.07
2020-12-01,06:00,1.07
2020-12-01,06:30,1.06
2020-12-01,07:00,1.06
2020-12-01,07:30,1.07
2020-12-01,08:00,1.07
2020-12-01,08:30,1.07
2020-12-01,09:00,1.08
2020-12-01,09:30,1.08
2020-12-01,10:00,1.07
2020-12-01,10:30,1.07
2020-12-01,11:00,1.07
2020-12-01,11:30,1.07
2020-12-01,12:00,1.07
2020-12-01,12:30,1.07
2020-12-01,13:00,1.07
2020-12-01,13:30,1.07
2020-12-01,14:00,1.07
2020-12-01,14:30,1.07
2020-12-01,15:00,1.07
2020-12-01,15:30,1.07
2020-12-01,16:00,1.07
2020-12-01,16:30,1.07
2020-12-01,17:00,1.07
2020-12-01,17:30,1.07
2020-12-01,18:00,1.07
2020-12-01,18:30,1.07
2020-12-01,19:00,1.06
2020-12-01,19:30,1.06
2020-12-01,20:00,1.06
2020-12-01,20:30,1.05
2020-12-01,21:00,1.05
2020-12-01,21:30,1.04
2020-12-01,22:00,1.04
2020-12-01,22:30,1.03
2020-12-01,23:00,1.03
2020-12-01,23:30,1.04
2020-12-02,00:00,1.04
2020-12-02,00:30,1.04
2020-12-02,01:00,1.05
2020-12-02,01:30,1.05
2020-12-02,02:00,1.05
2020-12-02,02:30,1.05
2020-12-02,03:00,1.04
2020-12-02,03:30,1.04
2020-12-02,04:00,1.04
2020-12-02,04:30,1.04
2020-12-02,05:00,1.04
2020-12-02,05:30,1.04
2020-12-02,06:00,1.04
2020-12-02,06:30,1.03
2020-12-02,07:00,1.03
2020-12-02,07:30,1.02
2020-12-02,08:00,1.02
2020-12-02,08:30,1.01
2020-12-02,09:00,1.01
2020-12-02,09:30,1.0
2020-12-02,10:00,1.0
2020-12-02,10:30,1.01
2020-12-02,11:00,1.02
2020-12-02,11:30,1.02
2020-12-02,12:00,1.03
2020-12-02,12:30,1.03
2020-12-02,13:00,1.03
2020-12-02,13:30,1.03
2020-12-02,14:00,1.03
2020-12-02,14:30,1.03
2020-12-02,15:00,1.03
2020-12-02,15:30,1.03
2020-12-02,16:00,1.03
2020-12-02,16:30,1.03
2020-12-02,17:00,1.03
2020-12-02,17:30,1.03
2020-12-02,18:00,1.03
2020-12-02,18:30,1.03
2020-12-02,19:00,1.03
2020-12-02,19:30,1.03
2020-12-02,20:00,1.03
2020-12-02,20:30,1.03
2020-12-02,21:00,1.02
2020-12-02,21:30,1.02
2020-12-02,22:00,1.01
2020-12-02,22:30,1.01
2020-12-02,23:00,1.0
2020-12-02,23:30,1.0
2020-12-03,00:00,1.0
2020-12-03,00:30,1.0
2020-12-03,01:00,1.0
2020-12-03,01:30,1.01
2020-12-03,02:00,1.01
2020-12-03,02:30,1.01
2020-12-03,03:00,1.01
2020-12-03,03:30,1.01
2020-12-03,04:00,1.01
2020-12-03,04:30,1.01
2020-12-03,05:00,1.01
2020-12-03,05:30,1.01
2020-12-03,06:00,1.01
2020-12-03,06:30,1.0
2020-12-03,07:00,1.0
2020-12-03,07:30,0.99
2020-12-03,08:00,0.99
2020-12-03,08:30,0.98
2020-12-03,09:00,0.98
2020-12-03,09:30,0.98
2020-12-03,10:00,0.98
2020-12-03,10:30,0.98
2020-12-03,11:00,0.98
2020-12-03,11:30,0.99
2020-12-03,12:00,0.99
2020-12-03,12:30,0.99
2020-12-03,13:00,1.0
2020-12-03,13:30,1.0
2020-12-03,14:00,1.0
2020-12-03,14:30,1.0
2020-12-03,15:00,1.0
2020-12-03,15:30,0.99
2020-12-03,16:00,1.0
2020-12-03,16:30,1.0
2020-12-03,17:00,1.0
2020-12-03,17:30,1.0
2020-12-03,18:00,1.0
2020-12-03,18:30,1.0
2020-12-03,19:00,1.0
2020-12-03,19:30,0.99
2020-12-03,20:00,0.99
2020-12-03,20:30,0.99
2020-12-03,21:00,0.98
2020-12-03,21:30,0.98
2020-12-03,22:00,0.98
2020-12-03,22:30,0.97
2020-12-03,23:00,0.97
2020-12-03,23:30,0.97
2020-12-04,00:00,0.98
2020-12-04,00:30,0.99
2020-12-04,01:00,1.0
2020-12-04,01:30,1.01
2020-12-04,02:00,1.01
2020-12-04,02:30,1.01
2020-12-04,03:00,1.02
2020-12-04,03:30,1.02
2020-12-04,04:00,1.02
2020-12-04,04:30,1.02
2020-12-04,05:00,1.02
2020-12-04,05:30,1.02
2020-12-04,06:00,1.03
2020-12-04,06:30,1.02
2020-12-04,07:00,1.03
2020-12-04,07:30,1.03
2020-12-04,08:00,1.03
2020-12-04,08:30,1.03
2020-12-04,09:00,1.04
2020-12-04,09:30,1.06
2020-12-04,10:00,1.08
2020-12-04,10:30,1.1
2020-12-04,11:00,1.12
2020-12-04,11:30,1.14
2020-12-04,12:00,1.15
2020-12-04,12:30,1.17
2020-12-04,13:00,1.18
2020-12-04,13:30,1.19
2020-12-04,14:00,1.22
2020-12-04,14:30,1.24
2020-12-04,15:00,1.26
2020-12-04,15:30,1.27
2020-12-04,16:00,1.29
2020-12-04,16:30,1.3
2020-12-04,17:00,1.32
2020-12-04,17:30,1.33
2020-12-05,12:00,1.38
2020-12-05,12:30,1.37
2020-12-05,13:00,1.37
2020-12-05,13:30,1.36
2020-12-05,14:00,1.35
2020-12-05,14:30,1.34
2020-12-05,15:00,1.33
2020-12-05,15:30,1.33
2020-12-05,16:00,1.32
2020-12-05,16:30,1.32
2020-12-05,17:00,1.31
2020-12-05,17:30,1.31
2020-12-05,18:00,1.3
2020-12-05,18:30,1.3
2020-12-05,19:00,1.29
2020-12-05,19:30,1.28
2020-12-05,20:00,1.27
2020-12-05,20:30,1.27
2020-12-05,21:00,1.28
2020-12-05,21:30,1.29
2020-12-05,22:00,1.29
2020-12-05,22:30,1.3
2020-12-05,23:00,1.3
2020-12-05,23:30,1.3
2020-12-06,00:00,1.3
2020-12-06,00:30,1.3
2020-12-06,01:00,1.3
2020-12-06,01:30,1.3
2020-12-06,02:00,1.3
2020-12-07,13:00,1.79
2020-12-07,13:30,1.79
2020-12-07,14:00,1.78
2020-12-07,14:30,1.78
2020-12-07,15:00,1.78
2020-12-07,15:30,1.78
2020-12-07,16:00,1.78
2020-12-07,16:30,1.79
2020-12-07,17:00,1.78
2020-12-07,17:30,1.77
2020-12-07,18:00,1.76
2020-12-07,18:30,1.74
2020-12-07,19:00,1.73
2020-12-07,19:30,1.73
2020-12-07,20:00,1.72
2020-12-07,20:30,1.73
2020-12-07,21:00,1.74
2020-12-07,21:30,1.76
2020-12-07,22:00,1.78
2020-12-07,22:30,1.79
2020-12-07,23:00,1.8
2020-12-07,23:30,1.8
2020-12-08,12:00,2.35
2020-12-08,12:30,2.32
2020-12-08,13:00,2.28
2020-12-08,13:30,2.24
2020-12-08,14:00,2.2
2020-12-08,14:30,2.16
2020-12-08,15:00,2.13
2020-12-08,15:30,2.09
2020-12-08,16:00,2.06
2020-12-08,16:30,2.03
2020-12-08,17:00,2.01
2020-12-08,17:30,1.98
2020-12-08,18:00,1.96
2020-12-08,18:30,1.93
2020-12-08,19:00,1.92
2020-12-08,19:30,1.9
2020-12-08,20:00,1.88
2020-12-08,20:30,1.86
2020-12-08,21:00,1.85
2020-12-08,21:30,1.84
2020-12-08,22:00,1.82
2020-12-08,22:30,1.81
2020-12-08,23:00,1.8
2020-12-08,23:30,1.79
2020-12-09,00:00,1.77
2020-12-09,00:30,1.76
2020-12-09,01:00,1.75
2020-12-09,01:30,1.74
2020-12-09,02:00,1.73
2020-12-09,02:30,1.72
2020-12-09,03:00,1.71
2020-12-09,03:30,1.7
2020-12-09,04:00,1.69
2020-12-09,13:30,1.57
2020-12-09,14:00,1.57
2020-12-09,14:30,1.57
2020-12-09,15:00,1.56
2020-12-09,15:30,1.56
2020-12-09,16:00,1.56
2020-12-09,16:30,1.55
2020-12-09,17:00,1.55
2020-12-09,17:30,1.54
2020-12-09,18:00,1.54
2020-12-09,18:30,1.53
2020-12-09,19:00,1.53
2020-12-09,19:30,1.53
2020-12-09,20:00,1.52
2020-12-09,20:30,1.52
2020-12-09,21:00,1.51
2020-12-09,21:30,1.51
2020-12-09,22:00,1.51
2020-12-09,22:30,1.51
2020-12-09,23:00,1.5
2020-12-09,23:30,1.5
2020-12-10,00:00,1.5
2020-12-10,00:30,1.49
2020-12-10,01:00,1.5
2020-12-10,01:30,1.51
2020-12-10,02:00,1.53
2020-12-10,02:30,1.55
2020-12-10,03:00,1.57
2020-12-11,16:30,5.95
2020-12-11,17:00,5.92
2020-12-11,17:30,5.89
2020-12-11,18:00,5.87
2020-12-11,18:30,5.86
2020-12-11,19:00,5.84
2020-12-11,19:30,5.81
2020-12-11,20:00,5.79
2020-12-11,20:30,5.76
2020-12-11,21:00,5.72
2020-12-11,21:30,5.68
2020-12-11,22:00,5.63
2020-12-11,22:30,5.57
2020-12-11,23:00,5.5
2020-12-11,23:30,5.4
2020-12-12,00:00,5.3
2020-12-12,00:30,5.19
2020-12-12,01:00,5.08
2020-12-12,01:30,4.97
2020-12-12,02:00,4.85
2020-12-12,02:30,4.73
2020-12-12,03:00,4.61
2020-12-12,03:30,4.49
2020-12-12,04:00,4.37
2020-12-12,04:30,4.26
2020-12-12,05:00,4.15
2020-12-12,05:30,4.06
2020-12-12,06:00,3.97
2020-12-12,06:30,3.89
2020-12-12,07:00,3.82
2020-12-12,07:30,3.75
2020-12-12,08:00,3.69
2020-12-12,08:30,3.63
2020-12-12,09:00,3.57
2020-12-12,09:30,3.51
2020-12-12,10:00,3.46
2020-12-12,10:30,3.41
2020-12-12,11:00,3.37
2020-12-12,11:30,3.32
2020-12-12,12:00,3.28
2020-12-12,12:30,3.23
2020-12-12,13:00,3.19
2020-12-12,13:30,3.15
2020-12-12,14:00,3.11
2020-12-12,14:30,3.08
2020-12-12,15:00,3.04
2020-12-12,15:30,3.01
2020-12-12,16:00,2.97
2020-12-12,16:30,2.94
2020-12-12,17:00,2.91
2020-12-12,17:30,2.88
2020-12-12,18:00,2.85
2020-12-12,18:30,2.83
2020-12-12,19:00,2.8
2020-12-12,19:30,2.78
2020-12-12,20:00,2.76
2020-12-12,20:30,2.73
2020-12-12,21:00,2.71
2020-12-12,21:30,2.69
2020-12-12,22:00,2.67
2020-12-12,22:30,2.65
2020-12-12,23:00,2.63
2020-12-12,23:30,2.61
2020-12-13,00:00,2.59
2020-12-13,00:30,2.57
2020-12-13,01:00,2.55
2020-12-13,01:30,2.54
2020-12-13,02:00,2.52
2020-12-13,02:30,2.51
2020-12-13,03:00,2.49
2020-12-13,03:30,2.47
2020-12-13,04:00,2.46
2020-12-13,04:30,2.44
2020-12-13,05:00,2.43
2020-12-13,05:30,2.42
2020-12-13,06:00,2.41
2020-12-13,06:30,2.4
2020-12-13,07:00,2.39
2020-12-13,07:30,2.38
2020-12-13,08:00,2.38
2020-12-13,08:30,2.37
2020-12-13,09:00,2.36
2020-12-13,09:30,2.36
2020-12-13,10:00,2.36
2020-12-13,10:30,2.35
2020-12-13,11:00,2.35
2020-12-13,11:30,2.35
2020-12-13,12:00,2.35
2020-12-13,12:30,2.35
2020-12-13,13:00,2.35
2020-12-13,13:30,2.35
2020-12-13,14:00,2.35
2020-12-13,14:30,2.35
2020-12-13,15:00,2.35
2020-12-13,15:30,2.35
2020-12-13,16:00,2.35
2020-12-13,16:30,2.35
2020-12-13,17:00,2.35
2020-12-13,17:30,2.35
2020-12-13,18:00,2.35
2020-12-13,18:30,2.36
2020-12-13,19:00,2.36
2020-12-13,19:30,2.36
2020-12-13,20:00,2.36
2020-12-15,12:00,2.7
2020-12-15,12:30,2.69
2020-12-15,13:00,2.67
2020-12-15,13:30,2.66
2020-12-15,14:00,2.64
2020-12-15,14:30,2.63
2020-12-15,15:00,2.62
2020-12-15,15:30,2.6
2020-12-15,16:00,2.57
2020-12-15,16:30,2.55
2020-12-15,17:00,2.52
2020-12-15,17:30,2.5
2020-12-15,18:00,2.48
2020-12-15,18:30,2.46
2020-12-15,19:00,2.44
2020-12-15,19:30,2.42
2020-12-15,20:00,2.4
2020-12-15,20:30,2.39
2020-12-15,21:00,2.37
2020-12-15,21:30,2.36
2020-12-15,22:00,2.35
2020-12-15,22:30,2.33
2020-12-15,23:00,2.32
2020-12-15,23:30,2.31
2020-12-16,00:00,2.3
2020-12-16,00:30,2.29
2020-12-16,01:00,2.27
2020-12-16,01:30,2.27
2020-12-16,02:00,2.26
2020-12-16,02:30,2.25
2020-12-16,03:00,2.24
2020-12-16,03:30,2.24
2020-12-16,04:00,2.23
2020-12-16,04:30,2.22
2020-12-16,05:00,2.21
2020-12-16,05:30,2.21
2020-12-17,13:00,2.24
2020-12-17,13:30,2.23
2020-12-17,14:00,2.22
2020-12-17,14:30,2.21
2020-12-17,15:00,2.21
2020-12-17,15:30,2.2
2020-12-17,16:00,2.19
2020-12-17,16:30,2.18
2020-12-17,17:00,2.17
2020-12-17,17:30,2.17
2020-12-17,18:00,2.16
2020-12-17,18:30,2.15
2020-12-17,19:00,2.15
2020-12-17,19:30,2.14
2020-12-17,20:00,2.14
2020-12-17,20:30,2.13
2020-12-17,21:00,2.12
2020-12-17,21:30,2.11
2020-12-17,22:00,2.11
2020-12-17,22:30,2.1
2020-12-17,23:00,2.09
2020-12-17,23:30,2.09
2020-12-18,00:00,2.08
2020-12-18,00:30,2.08
2020-12-18,01:00,2.07
2020-12-18,01:30,2.06
2020-12-18,02:00,2.06
2020-12-18,02:30,2.05
2020-12-18,03:00,2.05
2020-12-18,03:30,2.05
2020-12-18,04:00,2.04
2020-12-18,04:30,2.04
2020-12-18,05:00,2.03
2020-12-18,05:30,2.03
2020-12-18,06:00,2.03
2020-12-18,06:30,2.02
2020-12-18,07:00,2.02
2020-12-18,07:30,2.01
2020-12-18,08:00,2.01
2020-12-18,08:30,2.01
2020-12-18,09:00,2.0
2020-12-18,09:30,2.0
2020-12-18,10:00,1.99
2020-12-18,10:30,1.99
2020-12-18,11:00,1.98
2020-12-18,11:30,1.98
2020-12-18,12:00,1.98
2020-12-18,12:30,1.97
2020-12-18,13:00,1.97
2020-12-18,13:30,1.96
2020-12-18,14:00,1.96
2020-12-18,14:30,1.96
2020-12-18,15:00,1.95
2020-12-18,15:30,1.95
2020-12-18,16:00,1.95
2020-12-18,16:30,1.94
2020-12-18,17:00,1.94
2020-12-18,17:30,1.93
2020-12-18,18:00,1.93
2020-12-18,18:30,1.93
2020-12-18,19:00,1.92
2020-12-18,19:30,1.92
2020-12-18,20:00,1.92
2020-12-18,20:30,1.91
2020-12-18,21:00,1.91
2020-12-18,21:30,1.91
2020-12-18,22:00,1.9
2020-12-18,22:30,1.91
2020-12-18,23:00,1.91
2020-12-18,23:30,1.92
2020-12-19,00:00,1.92
2020-12-19,00:30,1.93
2020-12-19,01:00,1.94
2020-12-19,01:30,1.95
2020-12-19,02:00,1.96
2020-12-19,02:30,1.97
2020-12-19,03:00,1.98
2020-12-19,03:30,2.0
2020-12-19,04:00,2.03
2020-12-19,04:30,2.06
2020-12-19,05:00,2.1
2020-12-19,05:30,2.15
2020-12-19,06:00,2.21
2020-12-19,06:30,2.26
2020-12-19,07:00,2.31
2020-12-19,07:30,2.35
2020-12-19,08:00,2.39
2020-12-19,08:30,2.41
2020-12-19,09:00,2.43
2020-12-19,09:30,2.45
2020-12-19,10:00,2.46
2020-12-19,10:30,2.46
2020-12-19,11:00,2.47
2020-12-19,11:30,2.48
2020-12-19,12:00,2.48
2020-12-19,12:30,2.49
2020-12-19,13:00,2.5
2020-12-19,13:30,2.52
2020-12-19,14:00,2.55
2020-12-19,14:30,2.58
2020-12-19,15:00,2.61
2020-12-19,15:30,2.62
2020-12-19,16:00,2.61
2020-12-19,16:30,2.6
2020-12-19,17:00,2.57
2020-12-19,17:30,2.55
2020-12-19,18:00,2.52
2020-12-19,18:30,2.5
2020-12-19,19:00,2.47
2020-12-19,19:30,2.44
2020-12-19,20:00,2.41
2020-12-19,20:30,2.39
2020-12-19,21:00,2.36
2020-12-19,21:30,2.34
2020-12-19,22:00,2.32
2020-12-19,22:30,2.3
2020-12-19,23:00,2.27
2020-12-19,23:30,2.25
2020-12-20,00:00,2.24
2020-12-20,00:30,2.22
2020-12-20,01:00,2.2
2020-12-20,01:30,2.19
2020-12-20,02:00,2.17
2020-12-20,02:30,2.16
2020-12-20,03:00,2.15
2020-12-20,03:30,2.14
2020-12-20,04:00,2.13
2020-12-20,04:30,2.12
2020-12-20,05:00,2.11
2020-12-20,05:30,2.1
2020-12-20,06:00,2.09
2020-12-20,06:30,2.08
2020-12-20,07:00,2.07
2020-12-20,07:30,2.07
2020-12-20,08:00,2.06
2020-12-20,08:30,2.06
2020-12-20,09:00,2.05
2020-12-20,09:30,2.04
2020-12-20,10:00,2.04
2020-12-20,10:30,2.03
2020-12-20,11:00,2.02
2020-12-20,11:30,2.02
2020-12-20,12:00,2.01
2020-12-20,12:30,2.0
2020-12-20,13:00,2.0
2020-12-20,13:30,1.99
2020-12-20,14:00,1.99
2020-12-20,14:30,1.98
2020-12-20,15:00,1.98
2020-12-20,15:30,1.97
2020-12-20,16:00,1.97
2020-12-20,16:30,1.96
2020-12-20,17:00,1.96
2020-12-20,17:30,1.95
2020-12-20,18:00,1.95
2020-12-20,18:30,1.94
2020-12-20,19:00,1.94
2020-12-20,19:30,1.94
2020-12-20,20:00,1.93
2020-12-20,20:30,1.93
2020-12-20,21:00,1.93
2020-12-20,21:30,1.92
2020-12-20,22:00,1.92
2020-12-20,22:30,1.91
2020-12-20,23:00,1.91
2020-12-20,23:30,1.91
2020-12-21,00:00,1.91
2020-12-21,00:30,1.9
2020-12-21,01:00,1.9
2020-12-21,01:30,1.9
2020-12-21,02:00,1.9
2020-12-21,02:30,1.89
2020-12-21,03:00,1.89
2020-12-21,03:30,1.89
2020-12-21,04:00,1.89
2020-12-21,04:30,1.89
2020-12-21,05:00,1.89
2020-12-21,05:30,1.89
2020-12-21,06:00,1.89
2020-12-21,06:30,1.9
2020-12-21,07:00,1.91
2020-12-21,07:30,1.91
2020-12-21,08:00,1.92
2020-12-21,08:30,1.93
2020-12-21,09:00,1.95
2020-12-21,09:30,1.96
2020-12-21,10:00,1.97
2020-12-21,10:30,1.99
2020-12-21,11:00,2.0
2020-12-21,11:30,2.02
2020-12-21,12:00,2.03
2020-12-21,12:30,2.05
2020-12-21,13:00,2.07
2020-12-21,13:30,2.09
2020-12-21,14:00,2.1
2020-12-21,14:30,2.12
2020-12-21,15:00,2.14
2020-12-21,15:30,2.16
2020-12-21,16:00,2.18
2020-12-21,16:30,2.19
2020-12-21,17:00,2.21
2020-12-21,17:30,2.22
2020-12-21,18:00,2.23
2020-12-21,18:30,2.24
2020-12-21,19:00,2.24
2020-12-21,19:30,2.24
2020-12-21,20:00,2.24
2020-12-21,20:30,2.24
2020-12-21,21:00,2.24
2020-12-21,21:30,2.23
2020-12-21,22:00,2.22
2020-12-21,22:30,2.21
2020-12-21,23:00,2.2
2020-12-21,23:30,2.19
2020-12-22,00:00,2.18
2020-12-22,00:30,2.17
2020-12-22,01:00,2.15
2020-12-22,01:30,2.14
2020-12-22,02:00,2.13
2020-12-22,02:30,2.12
2020-12-22,03:00,2.11
2020-12-22,03:30,2.1
2020-12-22,04:00,2.09
2020-12-22,04:30,2.08
2020-12-22,05:00,2.07
2020-12-22,05:30,2.06
2020-12-22,06:00,2.05
2020-12-22,06:30,2.04
2020-12-22,07:00,2.03
2020-12-22,07:30,2.02
2020-12-22,08:00,2.02
2020-12-22,08:30,2.01
2020-12-22,09:00,2.0
2020-12-22,09:30,2.0
2020-12-22,10:00,1.99
2020-12-22,10:30,1.98
2020-12-22,11:00,1.98
2020-12-22,11:30,1.97
2020-12-22,12:00,1.97
2020-12-22,12:30,1.96
2020-12-22,13:00,1.96
2020-12-22,15:00,1.94
2020-12-22,15:30,1.93
2020-12-22,16:00,1.93
2020-12-22,16:30,1.93
2020-12-22,17:00,1.92
2020-12-22,17:30,1.92
2020-12-22,18:00,1.91
2020-12-22,18:30,1.91
2020-12-22,19:00,1.9
2020-12-22,19:30,1.9
2020-12-22,20:00,1.9
2020-12-22,20:30,1.89
2020-12-22,21:00,1.89
2020-12-22,21:30,1.88
2020-12-22,22:00,1.87
2020-12-22,22:30,1.88
2020-12-22,23:00,1.88
2020-12-22,23:30,1.88
2020-12-23,00:00,1.87
2020-12-23,00:30,1.86
2020-12-23,01:00,1.86
2020-12-23,01:30,1.86
2020-12-23,02:00,1.86
2020-12-23,02:30,1.85
2020-12-23,03:00,1.85
2020-12-23,03:30,1.85
2020-12-23,04:00,1.84
2020-12-23,04:30,1.84
2020-12-23,05:00,1.84
2020-12-23,05:30,1.83
2020-12-23,06:00,1.83
2020-12-23,06:30,1.83
2020-12-23,07:00,1.83
2020-12-23,07:30,1.82
2020-12-23,08:00,1.82
2020-12-23,08:30,1.82
2020-12-23,09:00,1.82
2020-12-23,09:30,1.82
2020-12-23,10:00,1.82
2020-12-23,10:30,1.82
2020-12-23,11:00,1.82
2020-12-23,11:30,1.82
2020-12-23,12:00,1.82
2020-12-23,12:30,1.82
2020-12-23,13:00,1.83
2020-12-23,13:30,1.83
2020-12-23,14:00,1.84
2020-12-23,14:30,1.84
2020-12-23,15:00,1.84
2020-12-23,15:30,1.85
2020-12-23,16:00,1.86
2020-12-23,16:30,1.87
2020-12-23,17:00,1.88
2020-12-23,17:30,1.89
2020-12-23,18:00,1.89
2020-12-23,18:30,1.89
2020-12-23,19:00,1.9
2020-12-23,19:30,1.89
2020-12-23,20:00,1.89
2020-12-23,20:30,1.89
2020-12-23,21:00,1.89
2020-12-23,21:30,1.89
2020-12-23,22:00,1.88
2020-12-23,22:30,1.88
2020-12-23,23:00,1.88
2020-12-23,23:30,1.87
2020-12-24,00:00,1.87
2020-12-24,00:30,1.86
2020-12-24,01:00,1.86
2020-12-24,01:30,1.86
2020-12-24,02:00,1.85
2020-12-24,02:30,1.85
2020-12-24,03:00,1.84
2020-12-24,03:30,1.84
2020-12-24,04:00,1.83
2020-12-24,04:30,1.83
2020-12-24,05:00,1.83
2020-12-24,05:30,1.82
2020-12-24,06:00,1.82
2020-12-24,06:30,1.82
2020-12-24,07:00,1.81
2020-12-24,07:30,1.81
2020-12-24,08:00,1.81
2020-12-24,08:30,1.8
2020-12-24,09:00,1.8
2020-12-24,09:30,1.79
2020-12-24,10:00,1.79
2020-12-24,10:30,1.79
2020-12-24,11:00,1.79
2020-12-24,11:30,1.78
2020-12-24,12:00,1.78
2020-12-24,12:30,1.77
2020-12-24,13:00,1.77
2020-12-24,13:30,1.77
2020-12-24,14:00,1.77
2020-12-24,14:30,1.76
2020-12-24,15:00,1.76
2020-12-24,15:30,1.76
2020-12-24,16:00,1.76
2020-12-24,16:30,1.75
2020-12-24,17:00,1.75
2020-12-24,17:30,1.75
2020-12-24,18:00,1.74
2020-12-24,18:30,1.74
2020-12-24,19:00,1.74
2020-12-24,19:30,1.74
2020-12-24,20:00,1.73
2020-12-24,20:30,1.73
2020-12-24,21:00,1.73
2020-12-24,21:30,1.73
2020-12-24,22:00,1.73
2020-12-24,22:30,1.72
2020-12-24,23:00,1.72
2020-12-24,23:30,1.72
2020-12-25,00:00,1.72
2020-12-25,00:30,1.71
2020-12-25,01:00,1.71
2020-12-25,01:30,1.71
2020-12-25,02:00,1.7
2020-12-25,02:30,1.7
2020-12-25,03:00,1.7
2020-12-25,03:30,1.7
2020-12-25,04:00,1.7
2020-12-25,04:30,1.7
2020-12-25,05:00,1.7
2020-12-25,05:30,1.69
2020-12-25,06:00,1.69
2020-12-25,06:30,1.69
2020-12-25,07:00,1.69
2020-12-25,07:30,1.69
2020-12-25,08:00,1.68
2020-12-25,08:30,1.68
2020-12-25,09:00,1.68
2020-12-25,09:30,1.68
2020-12-25,10:00,1.67
2020-12-25,10:30,1.67
2020-12-25,11:00,1.67
2020-12-25,11:30,1.67
2020-12-25,12:00,1.67
2020-12-25,12:30,1.67
2020-12-25,13:00,1.66
2020-12-25,13:30,1.66
2020-12-25,14:00,1.66
2020-12-25,14:30,1.66
2020-12-25,15:00,1.65
2020-12-25,15:30,1.65
2020-12-25,16:00,1.65
2020-12-25,16:30,1.64
2020-12-25,17:00,1.64
2020-12-25,17:30,1.64
2020-12-25,18:00,1.64
2020-12-25,18:30,1.63
2020-12-25,19:00,1.63
2020-12-25,19:30,1.62
2020-12-25,20:00,1.61
2020-12-25,20:30,1.61
2020-12-25,21:00,1.63
2020-12-25,21:30,1.64
2020-12-25,22:00,1.65
2020-12-25,22:30,1.64
2020-12-25,23:00,1.63
2020-12-25,23:30,1.63
2020-12-26,00:00,1.62
2020-12-26,00:30,1.61
2020-12-26,01:00,1.61
2020-12-26,01:30,1.61
2020-12-26,02:00,1.61
2020-12-26,02:30,1.61
2020-12-26,03:00,1.6
2020-12-26,03:30,1.6
2020-12-26,04:00,1.6
2020-12-26,04:30,1.6
2020-12-26,05:00,1.6
2020-12-26,05:30,1.6
2020-12-26,06:00,1.59
2020-12-26,06:30,1.59
2020-12-26,07:00,1.59
2020-12-26,07:30,1.59
2020-12-26,08:00,1.59
2020-12-26,08:30,1.59
2020-12-26,09:00,1.59
2020-12-26,09:30,1.59
2020-12-26,10:00,1.58
2020-12-26,10:30,1.58
2020-12-26,11:00,1.58
2020-12-26,11:30,1.58
2020-12-26,12:00,1.58
2020-12-26,12:30,1.57
2020-12-26,13:00,1.58
2020-12-26,13:30,1.57
2020-12-26,14:00,1.57
2020-12-26,14:30,1.57
2020-12-26,15:00,1.57
2020-12-26,15:30,1.57
2020-12-26,16:00,1.57
2020-12-26,16:30,1.57
2020-12-26,17:00,1.57
2020-12-26,17:30,1.56
2020-12-26,18:00,1.56
2020-12-26,18:30,1.56
2020-12-26,19:00,1.56
2020-12-26,19:30,1.55
2020-12-26,20:00,1.55
2020-12-26,20:30,1.55
2020-12-26,21:00,1.55
2020-12-26,21:30,1.55
2020-12-26,22:00,1.55
2020-12-26,22:30,1.55
2020-12-26,23:00,1.55
2020-12-26,23:30,1.55
2020-12-27,00:00,1.54
2020-12-27,00:30,1.54
2020-12-27,01:00,1.54
2020-12-27,01:30,1.54
2020-12-27,02:00,1.54
2020-12-27,02:30,1.54
2020-12-27,03:00,1.54
2020-12-27,03:30,1.54
2020-12-27,04:00,1.53
2020-12-27,04:30,1.53
2020-12-27,05:00,1.53
2020-12-27,05:30,1.53
2020-12-27,06:00,1.53
2020-12-27,06:30,1.53
2020-12-27,07:00,1.53
2020-12-27,07:30,1.53
2020-12-27,08:00,1.53
2020-12-27,08:30,1.53
2020-12-27,09:00,1.52
2020-12-27,09:30,1.52
2020-12-27,10:00,1.52
2020-12-27,10:30,1.52
2020-12-27,11:00,1.52
2020-12-27,11:30,1.52
2020-12-27,12:00,1.52
2020-12-27,12:30,1.52
2020-12-27,13:00,1.52
2020-12-27,13:30,1.52
2020-12-27,14:00,1.52
2020-12-27,14:30,1.51
2020-12-27,15:00,1.51
2020-12-27,15:30,1.51
2020-12-27,16:00,1.51
2020-12-27,16:30,1.51
2020-12-27,17:00,1.51
2020-12-27,17:30,1.51
2020-12-27,18:00,1.51
2020-12-27,18:30,1.51
2020-12-27,19:00,1.5
2020-12-27,19:30,1.49
2020-12-27,20:00,1.49
2020-12-27,20:30,1.48
2020-12-27,21:00,1.48
2020-12-27,21:30,1.49
2020-12-27,22:00,1.49
2020-12-27,22:30,1.5
2020-12-27,23:00,1.5
2020-12-27,23:30,1.5
2020-12-28,00:00,1.5
2020-12-28,00:30,1.5
2020-12-28,01:00,1.5
2020-12-28,01:30,1.5
2020-12-28,02:00,1.5
2020-12-28,02:30,1.51
2020-12-28,03:00,1.51
2020-12-28,03:30,1.52
2020-12-28,04:00,1.53
2020-12-28,04:30,1.53
2020-12-28,05:00,1.54
2020-12-28,05:30,1.54
2020-12-28,06:00,1.55
2020-12-28,06:30,1.57
2020-12-28,07:00,1.58
2020-12-28,07:30,1.6
2020-12-28,08:00,1.66
2020-12-28,08:30,1.73
2020-12-28,09:00,1.76
2020-12-28,09:30,1.79
2020-12-28,10:00,1.81
2020-12-28,10:30,1.84
2020-12-28,11:00,1.86
2020-12-28,11:30,1.86
2020-12-28,12:00,1.86
2020-12-28,12:30,1.85
2020-12-28,13:00,1.84
2020-12-28,13:30,1.83
2020-12-28,14:00,1.82
2020-12-28,14:30,1.8
2020-12-28,15:00,1.79
2020-12-28,15:30,1.78
2020-12-28,16:00,1.77
2020-12-28,16:30,1.77
2020-12-28,17:00,1.76
2020-12-28,17:30,1.75
2020-12-28,18:00,1.73
2020-12-28,18:30,1.72
2020-12-28,19:00,1.72
2020-12-28,19:30,1.71
2020-12-28,20:00,1.71
2020-12-28,20:30,1.7
2020-12-28,21:00,1.7
2020-12-28,21:30,1.69
2020-12-28,22:00,1.69
2020-12-28,22:30,1.68
2020-12-28,23:00,1.68
2020-12-28,23:30,1.68
2020-12-29,00:00,1.68
2020-12-29,00:30,1.67
2020-12-29,01:00,1.67
2020-12-29,01:30,1.67
2020-12-29,02:00,1.67
2020-12-29,02:30,1.67
2020-12-29,03:00,1.67
2020-12-29,03:30,1.67
2020-12-29,04:00,1.67
2020-12-29,04:30,1.67
2020-12-29,05:00,1.67
2020-12-29,05:30,1.67
2020-12-29,06:00,1.67
2020-12-29,06:30,1.68
2020-12-29,07:00,1.69
2020-12-29,07:30,1.69
2020-12-29,08:00,1.7
2020-12-29,08:30,1.7
2020-12-29,09:00,1.71
2020-12-29,09:30,1.72
2020-12-29,10:00,1.73
2020-12-29,10:30,1.73
2020-12-29,11:00,1.75
2020-12-29,11:30,1.76
2020-12-29,12:00,1.77
2020-12-29,12:30,1.77
2020-12-29,13:00,1.78
2020-12-29,13:30,1.79
2020-12-29,14:00,1.8
2020-12-29,14:30,1.81
2020-12-29,15:00,1.82
2020-12-29,15:30,1.82
2020-12-29,16:00,1.83
2020-12-29,16:30,1.83
2020-12-29,17:00,1.83
2020-12-29,17:30,1.84
2020-12-29,18:00,1.84
2020-12-29,18:30,1.84
2020-12-29,19:00,1.84
2020-12-29,19:30,1.83
2020-12-29,20:00,1.82
2020-12-29,20:30,1.82
2020-12-29,21:00,1.81
2020-12-29,21:30,1.8
2020-12-29,22:00,1.79
2020-12-29,22:30,1.78
2020-12-29,23:00,1.77
2020-12-29,23:30,1.76
2020-12-30,00:00,1.75
2020-12-30,00:30,1.73
2020-12-30,01:00,1.73
2020-12-30,01:30,1.72
2020-12-30,02:00,1.71
2020-12-30,02:30,1.7
2020-12-30,03:00,1.7
2020-12-30,03:30,1.69
2020-12-30,04:00,1.69
2020-12-30,04:30,1.68
2020-12-30,05:00,1.67
2020-12-30,05:30,1.67
2020-12-30,06:00,1.66
2020-12-30,06:30,1.66
2020-12-30,07:00,1.65
2020-12-30,07:30,1.65
2020-12-30,08:00,1.64
2020-12-30,08:30,1.64
2020-12-30,09:00,1.64
2020-12-30,09:30,1.63
2020-12-30,10:00,1.63
2020-12-30,10:30,1.62
2020-12-30,11:00,1.62
2020-12-30,11:30,1.62
2020-12-30,12:00,1.61
2020-12-30,12:30,1.61
2020-12-30,13:00,1.61
2020-12-30,13:30,1.6
2020-12-30,14:00,1.6
2020-12-30,14:30,1.6
2020-12-30,15:00,1.6
2020-12-30,15:30,1.59
2020-12-30,16:00,1.59
2020-12-30,16:30,1.59
2020-12-30,17:00,1.59
2020-12-30,17:30,1.59
2020-12-30,18:00,1.58
2020-12-30,18:30,1.58
2020-12-30,19:00,1.58
2020-12-30,19:30,1.58
2020-12-30,20:00,1.57
2020-12-30,20:30,1.57
2020-12-30,21:00,1.57
2020-12-30,21:30,1.57
2020-12-30,22:00,1.56
2020-12-30,22:30,1.56
2020-12-30,23:00,1.56
2020-12-30,23:30,1.56
2020-12-31,00:00,1.56
2020-12-31,00:30,1.56
2020-12-31,01:00,1.55
2020-12-31,01:30,1.55
2020-12-31,02:00,1.55
2020-12-31,02:30,1.55
2020-12-31,03:00,1.55
2020-12-31,03:30,1.55
2020-12-31,04:00,1.55
2020-12-31,04:30,1.54
2020-12-31,05:00,1.54
2020-12-31,05:30,1.54
2020-12-31,06:00,1.54
2020-12-31,06:30,1.55
2020-12-31,07:00,1.55
2020-12-31,07:30,1.55
2020-12-31,08:00,1.55
2020-12-31,08:30,1.55
2020-12-31,09:00,1.54
2020-12-31,09:30,1.55